Location: Harmony
(28.2000°N, 81.1500°W)
Time: 14:53:04
(UTC-05:00)

Shenzhou-11 Module - Pass Details

Date: 18 December 2017
Orbit: 358 x 361 km, 42.8° (Epoch: 22 January)

Event Time Altitude Azimuth Distance (km) Brightness Sun altitude
Rises 18:49:27 0° 250° (WSW) 2,167 7.7 -16.6°
Reaches altitude 10° 18:51:33 10° 258° (WSW) 1,326 6.1 -17.1°
Maximum altitude 18:54:22 37° 329° (NNW) 572 3.0 -17.6°
Enters shadow 18:54:53 34° 356° (N) 615 2.9 -17.8°
